FW2726 Weather Reports


time (UTC)temp
F
wind
direction
speed
knots
gust
knots
rain 1hr
in
rain 24hr
in
rain mn
in
humidity
%
barometer
mb
20260504011605 55 331 23.5 31.3 0.00 0.00 0.00 34 1005.3
20260504004601 57 18 17.4 38.2 0.00 0.00 0.00 36 1005.0
20260504003100 57 351 19.1 31.3 0.00 0.00 0.00 33 1005.0
20260504001616 57 4 20.0 28.7 0.00 0.00 0.00 33 1004.9
20260503234600 57 12 21.7 31.3 0.00 0.00 0.00 35 1004.7
20260503233103 57 8 20.9 32.2 0.00 0.00 0.00 37 1004.6
20260503231604 57 8 20.0 26.9 0.00 0.00 0.00 39 1004.4
20260503230108 57 351 18.2 25.2 0.00 0.00 0.00 38 1004.1
20260503224602 57 354 18.2 26.1 0.00 0.00 0.00 38 1004.0
20260503223059 58 23 20.9 29.5 0.00 0.00 0.00 39 1003.9
20260503221600 59 9 20.9 30.4 0.00 0.00 0.00 34 1003.5
20260503220104 60 354 23.5 30.4 0.00 0.00 0.00 32 1003.2
20260503214602 60 351 20.9 31.3 0.00 0.00 0.00 31 1002.9
20260503213112 62 359 22.6 30.4 0.00 0.00 0.00 30 1003.2
20260503211601 63 359 24.3 37.4 0.00 0.00 0.00 33 1003.2
20260503210105 61 349 21.7 32.2 0.00 0.00 0.00 33 1003.1
20260503204600 62 347 24.3 30.4 0.00 0.00 0.00 33 1003.2
20260503203105 62 4 24.3 31.3 0.00 0.00 0.00 31 1003.0
20260503201559 62 4 21.7 33.9 0.00 0.00 0.00 31 1003.2
20260503200105 62 347 20.9 30.4 0.00 0.00 0.00 30 1002.9
20260503194557 62 337 19.1 27.8 0.00 0.00 0.00 33 1002.8
20260503193112 62 346 21.7 31.3 0.00 0.00 0.00 32 1002.7
20260503191644 63 359 21.7 30.4 0.00 0.00 0.00 29 1002.8
20260503184611 66 347 18.2 29.5 0.00 0.00 0.00 29 1002.6
20260503183110 66 359 23.5 32.2 0.00 0.00 0.00 29 1002.6
20260503181612 67 344 17.4 29.5 0.00 0.00 0.00 30 1002.6
20260503174603 66 334 16.5 26.9 0.00 0.00 0.00 32 1002.9
20260503173103 67 337 19.1 26.9 0.00 0.00 0.00 31 1003.1
20260503171558 68 351 19.1 26.1 0.00 0.00 0.00 29 1003.1
20260503160104 64 308 16.5 21.7 0.00 0.00 0.00 35 1003.8
20260503090105 42 252 8.7 11.3 0.00 0.00 0.00 66 1006.8
20260503081630 43 242 8.7 11.3 0.00 0.00 0.00 63 1007.5
20260503080117 42 236 6.1 9.6 0.00 0.00 0.00 64 1007.6
20260503071601 43 220 7.8 12.2 0.00 0.00 0.00 61 1008.3
20260503070107 42 222 8.7 13.0 0.00 0.00 0.00 63 1008.4
20260503060104 42 223 6.1 8.7 0.00 0.00 0.00 62 1009.3
20260503054605 42 224 5.2 7.0 0.00 0.00 0.00 62 1009.4
20260503053100 42 224 5.2 7.8 0.00 0.00 0.00 62 1009.5
20260503051558 42 227 4.3 7.0 0.00 0.00 0.00 60 1009.7
20260503050101 43 224 4.3 6.1 0.00 0.00 0.00 58 1009.8
20260503044613 43 216 3.5 5.2 0.00 0.00 0.00 58 1010.0
20260503043111 46 202 4.3 5.2 0.00 0.00 0.00 52 1010.2
20260503041601 47 226 4.3 6.1 0.00 0.00 0.00 50 1010.3
20260503034600 49 241 4.3 6.1 0.00 0.00 0.00 47 1010.7
20260503033136 50 228 4.3 5.2 0.00 0.00 0.00 47 1010.6
20260503031602 51 227 3.5 4.3 0.00 0.00 0.00 44 1010.6
20260503030113 53 227 3.5 4.3 0.00 0.00 0.00 44 1010.7
20260503024624 55 259 1.7 2.6 0.00 0.00 0.00 40 1010.6
20260503023107 57 259 1.7 3.5 0.00 0.00 0.00 37 1010.5
20260503021605 61 299 1.7 4.3 0.00 0.00 0.00 33 1010.6
20260503020100 64 293 3.5 7.0 0.00 0.00 0.00 30 1010.7
20260503014605 65 310 3.5 6.1 0.00 0.00 0.00 29 1010.7
20260503013100 66 299 5.2 7.8 0.00 0.00 0.00 28 1010.9